This is the latest recevied weather packets stored in our database for station/object OK2ILA-1. If no packets are shown the sender has not sent any weather packets the latest 10 day(s).
| Time | Temp. | Humidity | Pressure | Rain* | Wind** | Luminosity | Snow |
|---|---|---|---|---|---|---|---|
| 1788495252 | 18.33° C | 100% | 1018.8 hPa | 0 mm | - | - | - |
| 1788494531 | 18.33° C | 100% | 1018.9 hPa | 0 mm | - | - | - |
| 1788493090 | 18.33° C | 100% | 1018.9 hPa | 0 mm | - | - | - |
| 1788492369 | 17.78° C | 100% | 1019.1 hPa | 0 mm | - | - | - |
| 1788491648 | 17.78° C | 100% | 1018.9 hPa | 0 mm | - | - | - |
| 1788490928 | 17.78° C | 100% | 1018.9 hPa | 0 mm | - | - | - |
| 1788489486 | 18.33° C | 100% | 1019 hPa | 0 mm | - | - | - |
| 1788487324 | 18.33° C | 100% | 1018.9 hPa | 0 mm | - | - | - |
| 1788485883 | 18.33° C | 100% | 1019 hPa | 0 mm | - | - | - |
| 1788483721 | 18.89° C | 100% | 1019.1 hPa | 0 mm | - | - | - |
| 1788482290 | 18.89° C | 100% | 1019.3 hPa | 0 mm | - | - | - |
| 1788481559 | 18.89° C | 100% | 1019.4 hPa | 0 mm | - | - | - |
| 1788475073 | 18.33° C | 100% | 1019.7 hPa | 0 mm | - | - | - |
| 1788474352 | 18.33° C | 100% | 1019.6 hPa | 0 mm | - | - | - |
| 1788473631 | 18.33° C | 100% | 1019.7 hPa | 0 mm | - | - | - |
| 1788472190 | 18.33° C | 100% | 1020 hPa | 0 mm | - | - | - |
| 1788470749 | 18.33° C | 100% | 1019.7 hPa | 0 mm | - | - | - |
| 1788470028 | 18.33° C | 100% | 1019.9 hPa | 0 mm | - | - | - |
| 1788467866 | 18.33° C | 100% | 1019.6 hPa | 0 mm | - | - | - |
| 1788466424 | 17.78° C | 100% | 1019.7 hPa | 0 mm | - | - | - |
| 1788465704 | 18.33° C | 100% | 1019.6 hPa | 0 mm | - | - | - |
| 1788464983 | 18.33° C | 100% | 1019.7 hPa | 0 mm | - | - | - |
| 1788463542 | 18.33° C | 100% | 1019.7 hPa | 0 mm | - | - | - |
| 1788449849 | 23.33° C | 100% | 1019.4 hPa | 0 mm | - | - | - |
| 1788449128 | 23.89° C | 100% | 1019.5 hPa | 0 mm | - | - | - |
* Rain latest hour (hover to see other rain measurements)
** Current wind speed in m/s (hover to see current wind gust speed)